Date,TemperatureHighF,TemperatureAvgF,TemperatureLowF,DewpointHighF,DewpointAvgF,DewpointLowF,HumidityHigh,HumidityAvg,HumidityLow,PressureMaxIn,PressureMinIn,WindSpeedMaxMPH,WindSpeedAvgMPH,GustSpeedMaxMPH,PrecipitationSumIn
2013-1-1,42,34,29,38,33,29,99,96,85,30.49,30.34,2,0,6,0.01
2013-1-2,46,33,27,38,30,26,99,90,50,30.34,30.18,5,0,8,0.01
2013-1-3,44,33,25,36,30,24,98,88,55,30.18,30.08,6,1,11,0.35
2013-1-4,49,42,36,45,41,36,98,96,86,30.27,30.14,10,2,17,0.03
2013-1-5,44,41,39,43,40,38,99,95,82,30.17,30.09,6,1,11,0.07
2013-1-6,44,42,39,41,40,38,97,93,87,30.15,29.96,9,3,18,0.02
2013-1-7,52,46,42,48,44,40,97,93,85,30.12,29.76,14,3,20,0.02
2013-1-8,50,46,42,49,44,40,98,95,87,30.13,29.69,22,3,26,0.82
2013-1-9,50,41,35,48,40,34,98,96,93,29.93,29.64,11,2,19,0.79
2013-1-10,38,34,30,36,33,29,99,96,92,30.10,29.92,4,0,8,0.00
2013-1-11,40,31,26,31,28,25,98,89,66,30.31,30.10,3,0,7,0.01
2013-1-12,38,30,25,32,27,24,98,91,74,30.43,30.30,5,0,7,0.00
2013-1-13,36,29,24,31,27,24,98,93,73,30.48,30.42,2,0,3,0.00
2013-1-14,40,33,30,33,30,29,96,90,72,30.56,30.46,5,0,8,0.01
2013-1-15,41,34,29,37,32,28,98,92,79,30.69,30.55,1,0,5,0.00
2013-1-16,43,32,27,38,31,27,99,95,79,30.67,30.51,3,0,6,0.00
2013-1-17,36,33,29,36,33,28,99,98,97,30.51,30.28,3,0,3,0.00
2013-1-18,37,35,34,37,35,33,99,98,96,30.33,30.25,1,0,4,0.00
2013-1-19,38,36,35,36,35,34,98,96,93,30.37,30.33,2,0,5,0.00
2013-1-20,44,38,33,40,37,32,99,96,88,30.38,30.25,3,0,4,0.00
2013-1-21,38,36,35,37,35,34,98,97,93,30.26,30.12,3,0,5,0.00
2013-1-22,41,35,32,38,34,31,99,96,88,30.12,29.90,3,0,4,0.00
2013-1-23,42,40,37,41,39,36,98,94,83,30.12,29.83,6,1,13,0.31
2013-1-24,43,41,39,42,39,38,98,95,86,30.19,30.03,6,1,8,0.14
2013-1-25,52,45,39,46,42,37,98,92,75,30.04,29.89,9,2,15,0.03
2013-1-26,44,41,38,42,39,36,97,94,89,30.01,29.85,9,2,12,0.12
2013-1-27,41,39,34,39,37,33,99,95,91,30.03,29.97,8,1,12,0.01
2013-1-28,41,38,34,40,38,34,99,98,95,30.07,29.99,4,0,8,0.19
2013-1-29,46,43,40,46,42,40,99,98,96,30.31,30.07,6,0,8,0.27
2013-1-30,48,46,44,47,45,43,99,98,96,30.36,30.30,4,0,5,0.08
2013-1-31,49,46,45,46,45,45,99,96,90,30.37,30.27,11,1,15,0.07